Regional Weather Roundup
Issued by NWS

Home | Current Version | Previous Version | Graphics & Text | Print | Product List | Glossary On
Versions: 1 2 3 4 5 6 7 8 9 10 11 12 13 14 15 16 17 18 19 20 21 22 23 24 25 26 27 28 29 30 31 32 33 34 35 36 37 38 39 40 41 42 43 44 45 46 47 48 49 50
000
ASUS43 KMKX 030711
RWRWI

WISCONSIN REGIONAL WEATHER ROUNDUP
NATIONAL WEATHER SERVICE MILWAUKEE/SULLIVAN WI
200 AM CDT WED SEP 03 2014

NOTE: "FAIR" INDICATES FEW OR NO CLOUDS BELOW 12,000 FEET WITH NO
SIGNIFICANT WEATHER AND/OR OBSTRUCTIONS TO VISIBILITY.

WIZ001-002-006>008-014>016-023>028-030800-
NORTHWEST WISCONSIN

CITY           SKY/WX    TMP DP  RH WIND       PRES   REMARKS
SUPERIOR ARPT  PTCLDY    58  56  90 CALM      29.84R
ASHLAND        MOCLDY    54  52  93 SW6       29.84S
HAYWARD        PTCLDY    52  51  97 CALM      29.88R
SIREN          CLEAR     64  55  71 SW9       29.86S
RICE LAKE      CLEAR     56  52  87 CALM      29.91S
LADYSMITH      CLEAR     56  54  92 CALM      29.92S
EAU CLAIRE     CLEAR     58  56  93 SW3       29.91R
MENOMONIE      SUNNY     60  56  88 CALM      29.91S
NEW RICHMOND   CLEAR     60  55  84 S5        29.89F
OSCEOLA        CLEAR     58  58  99 S6        29.91S
$$

WIZ003>005-009-010-017-018-030800-
NORTH CENTRAL WISCONSIN

CITY           SKY/WX    TMP DP  RH WIND       PRES   REMARKS
WOODRUFF       CLEAR     52  50  92 CALM      29.91F
RHINELANDER    CLEAR     50  48  93 CALM      29.94R
EAGLE RIVER    CLEAR     50  50 100 CALM      29.91F
LAND O LAKES   CLEAR     46  46  99 S3        29.92S
PHILLIPS       CLEAR     55  52  92 SW3       29.91R
TOMAHAWK       CLEAR     47  46  97 CALM      29.94R FOG
MEDFORD        CLEAR     56  53  89 S5        29.94R
MERRILL        CLEAR     48  48 100 CALM      29.94S
$$

WIZ029-030-035-036-043>047-030800-
CENTRAL WISCONSIN

CITY           SKY/WX    TMP DP  RH WIND       PRES   REMARKS
WAUSAU         CLEAR     57  55  93 SE3       29.93R
MOSINEE        CLEAR     54  54 100 S6        29.96R
MARSHFIELD     CLEAR     55  53  93 SW5       29.95R
STEVENS POINT  CLEAR     53  53  97 CALM      29.96R
WAUPACA        CLEAR     58  56  95 CALM      29.95S
WAUTOMA        CLEAR     55  55 100 CALM      29.96S
WISC RAPIDS    CLEAR     56  55  97 CALM      29.96S
CAMP DOUGLAS   CLEAR     58  58  99 S2        29.95S
$$

WIZ011>013-019>022-031-037>040-048>050-030800-
NORTHEAST WISCONSIN

CITY           SKY/WX    TMP DP  RH WIND       PRES   REMARKS
ANTIGO         CLEAR     51  50  98 CALM      29.95R
STURGEON BAY   CLEAR     61  55  82 SW7       29.93R
GREEN BAY      CLEAR     57  55  93 CALM      29.94R
MANITOWOC      CLEAR     61  58  90 W5        29.95R
APPLETON       CLEAR     63  55  77 SW8       29.95S
CLINTONVILLE   CLEAR     54  54 100 CALM      29.94S
OSHKOSH        CLEAR     62  57  83 SW6       29.95R
$$

WIZ032>034-041-042-053>061-030800-
SOUTHWEST WISCONSIN

CITY           SKY/WX    TMP DP  RH WIND       PRES   REMARKS
LA CROSSE      CLEAR     64  61  90 S5        29.94R
SPARTA         CLEAR     53  52  96 CALM      29.96R
VIROQUA        FAIR      61  61 100 S3        29.97S
BOSCOBEL       PTCLDY    58  55  90 CALM      29.97F FOG
PRAIRIE DU CHI PTCLDY    59  57  93 CALM      29.97S
PLATTEVILLE    FAIR      60  58  92 CALM      30.00R
$$

WIZ056-057-062-063-064-067-068-030800-
SOUTH CENTRAL WISCONSIN

CITY           SKY/WX    TMP DP  RH WIND       PRES   REMARKS
BARABOO/DELLS  CLEAR     62  56  79 SW3       29.96S
LONE ROCK      CLEAR     61  56  83 CALM      29.97S
WATERTOWN      CLEAR     56  56  98 CALM      29.98R
MADISON        CLEAR     61  57  87 CALM      29.97S
MIDDLETON      FAIR      58  56  95 CALM      29.98S
MONROE         CLEAR     61  57  88 SW8       29.99S
JANESVILLE     CLEAR     59  55  88 CALM      29.98S
$$

WIZ051-052-058>065-066-070>072-030800-
SOUTHEAST WISCONSIN

CITY           SKY/WX    TMP DP  RH WIND       PRES   REMARKS
MILWAUKEE      CLEAR     66  58  75 W5        29.97S
WAUKESHA       CLEAR     59  55  88 CALM      29.99S
MILWAUKEE/TIMM CLEAR     61  55  82 CALM      29.98S
RACINE         CLEAR     65  58  78 W5        29.99R
BURLINGTON     CLEAR     54  54 100 CALM      29.98F FOG
KENOSHA        CLEAR     60  58  92 CALM      29.98S
FOND DU LAC    CLEAR     59  56  89 S3        29.96R
SHEBOYGAN      CLEAR     58  55  90 CALM      29.96R
WEST BEND      CLEAR     55  54  94 CALM      29.97S
JUNEAU         PTCLDY    58  56  91 CALM      29.98S
$$

LSZ147-162-030800-
LAKE SUPERIOR

STATION/POSITION TIME  TEMP    WIND        PRES    WAVE
                       AIR SEA DIR/SP/G            HT/PER
                 (UTC) (F)     (DEG/KT/KT) (MB)    (FT/S)
W MID LAKE BUOY  0650   60 58  260/ 14/ 21 1010.1R   2/ 4
DEVILS ISLAND    0700   61     310/  2/  3 1010.3R
PORT WING        0600   63     200/  7/ 11 1009.8R
SAXON HARBOR     0600   58     190/  3/  6 1010.5
$$

LMZ867-665-643>646-030800-
LAKE MICHIGAN

STATION/POSITION TIME  TEMP    WIND        PRES    WAVE
                       AIR SEA DIR/SP/G            HT/PER
                 (UTC) (F)     (DEG/KT/KT) (MB)    (FT/S)
N MID LAKE BUOY  0650   66 65  250/ 10/ 12 1012.1R   1/ 4
NORTHPORT PIER   0600   64     240/  4/  6 1012.2R
SISTER BAY       0511   68     240/  6/  7   N/A
ALGOMA LAKESHORE 0623             CALM       N/A
KEWAUNEE LAKESHO 0600   63     280/  5/  6 1012.4R
SHEBOYGAN LAKESH 0700   64 49  250/  8/  9 1014.3R
ATWATER BUOY     0600   67     230/  8/  8 1015.7R
MILWAUKEE LAKESH 0600   69     250/  7/  8   N/A
S MID LAKE BUOY  0650   71 71  240/  4/  6 1014.7R   0
KENOSHA   LAKESH 0700   67     250/  7/  8 1014.9S
$$

TC  - TEMPERATURE IN CELSIUS
VSB - VISIBILITY IN STATUTE MILES
WCI - WIND CHILL INDEX
HX  - HEAT INDEX



USA.gov is the U.S. government's official web portal to all federal, state and local government web resources and services.